Home   Weather   Seljaküla   Past weeks
Flag for Estonia

Past Weather in Seljaküla, Estonia — Yesterday and Last 2 Weeks

Now
35 °F

Low clouds.


Feels Like: 30 °F
Forecast: 40 / 37 °F
Wind: 6 mph from Southeast

Location: Laane-Nigula

Current Time: Dec 14, 2019 at 4:07:16 pm

Latest Report: Dec 14, 2019 at 3:00 pm


Visibility: 8 mi

Pressure: 29.41 "Hg

Humidity: 90%

Dew Point: 33 °F

Location of SeljakülaLocation

Past Weather in Seljaküla — Graph

°F

Seljaküla Temperature Yesterday

Maximum temperature yesterday: 36 °F (at 7:00 am)
Minimum temperature yesterday: 33 °F (at 12:00 am)
Average temperature yesterday: 35 °F

High & Low Weather Summary for the Past Weeks

 TemperatureHumidityPressure
High46 °F (Dec 9, 1:00 am)100% (Nov 30, 8:00 pm)30.07 "Hg (Nov 30, 8:00 pm)
Low20 °F (Dec 3, 2:00 am)59% (Dec 1, 2:00 pm)28.88 "Hg (Dec 8, 11:00 pm)
Average36 °F88%29.56 "Hg
* Reported Nov 29 2:00 pm — Dec 14 2:00 pm, Seljaküla. Weather by CustomWeather, © 2019

Note: Actual official high and low records may vary slightly from our data, if they occured in-between our weather recording intervals... More about our weather records

Seljaküla Weather History for the Previous 24 Hours

Scroll right to see more
 ConditionsComfort  
Time TempWeatherWind HumidityBarometerVisibility
2:00 pm
Sat, Dec 14
35 °FLow clouds.6 mph92%29.41 "Hg9 mi
1:00 pm35 °FLight rain. Low clouds.6 mph91%29.41 "Hg10 mi
12:00 pm35 °FLight rain. Low clouds.6 mph91%29.44 "Hg10 mi
11:00 am36 °FLow clouds.7 mph89%29.44 "Hg12 mi
10:00 am35 °FRain showers. Low clouds.7 mph92%29.44 "Hg9 mi
9:00 am35 °FLight rain. Low clouds.6 mph91%29.41 "Hg11 mi
8:00 am34 °FLow clouds.6 mph91%29.41 "Hg11 mi
7:00 am34 °FLow clouds.6 mph92%29.41 "Hg11 mi
6:00 am34 °FLow clouds.6 mph94%29.44 "Hg8 mi
5:00 am33 °FLight snow. Low clouds.5 mph95%29.44 "Hg8 mi
4:00 am34 °FFreezing rain. Overcast.6 mph92%29.44 "Hg8 mi
3:00 am35 °FOvercast.5 mph88%29.47 "Hg12 mi
2:00 am34 °FLow clouds.5 mph92%29.47 "Hg12 mi
1:00 am34 °FLow clouds.5 mph95%29.47 "Hg12 mi
12:00 am34 °FLow clouds.5 mph91%29.50 "Hg12 mi
11:00 pm
Fri, Dec 13
34 °FOvercast.5 mph90%29.50 "Hg12 mi
10:00 pm34 °FOvercast.5 mph88%29.50 "Hg12 mi
9:00 pm34 °FOvercast.6 mph88%29.50 "Hg12 mi
8:00 pm34 °FPassing clouds.5 mph88%29.53 "Hg12 mi
7:00 pm35 °FOvercast.5 mph87%29.54 "Hg12 mi
6:00 pm35 °FLow clouds.3 mph90%29.56 "Hg10 mi
5:00 pm35 °FDrizzle. Low clouds.5 mph94%29.57 "Hg7 mi
4:00 pm36 °FLight rain. Low clouds.5 mph95%29.58 "Hg5 mi
Weather by CustomWeather, © 2019

See weather overview

Advertising